Theta_e
311 310 309 309 308 308 307 306 305 303 302 302 304 305 306 306 306 307 310 310 312 313 322 324 328 327 328 327 328 328 330 332 330 330 330 328 326 324 325 325 324 322 323 325 324
310 310 310 310 310 309 308 308 307 307 306 302 301 302 304 305 307 311 310 310 311 311 319 327 327 328 326 327 328 329 330 334 332 328 329 329 326 324 323 323 325 324 325 325 324
307 308 309 310 310 309 309 308 308 307 307 306 304 301 301 304 314 312 315 317 318 311 314 319 328 326 327 327 328 329 333 332 331 329 328 329 328 327 324 323 322 324 325 323 322
307 307 308 308 309 308 308 309 308 308 307 307 306 305 300 306 307 313 316 314 317 315 317 317 317 324 328 329 329 331 331 331 331 330 329 328 328 328 324 324 323 323 325 323 322
306 307 307 307 306 307 307 309 309 309 308 307 307 308 305 314 308 312 317 313 318 318 321 317 317 318 321 328 329 331 331 331 330 329 328 328 328 327 326 325 323 322 323 323 323
302 301 304 306 306 306 306 306 308 308 308 308 308 310 310 306 306 308 309 310 313 319 319 317 316 317 316 320 322 327 330 330 329 329 328 328 328 326 327 325 324 321 322 321 321
306 306 301 299 304 306 305 305 305 305 306 306 310 312 311 309 304 308 311 311 310 314 319 318 317 317 316 317 317 319 325 327 328 325 325 324 326 326 325 324 323 320 320 320 320
307 306 306 305 300 302 306 304 303 303 305 307 311 312 311 306 305 306 306 307 308 314 315 317 318 316 315 315 317 319 318 320 321 323 324 324 327 325 324 323 323 323 320 319 318
306 306 306 306 305 302 299 302 303 303 306 308 311 311 308 306 307 305 306 309 309 309 312 316 316 314 316 316 317 317 320 320 321 321 324 324 326 326 325 325 324 323 322 322 320
305 305 305 306 306 305 299 300 302 305 307 309 311 311 309 310 309 309 309 309 310 313 312 314 317 316 314 316 320 320 319 321 322 322 323 324 325 325 325 324 324 322 323 323 321
306 304 305 305 306 305 302 300 305 312 310 313 311 308 312 310 312 313 312 310 313 313 312 315 320 321 320 317 318 320 320 321 322 322 324 324 326 326 326 325 322 322 322 323 323
304 304 305 305 305 305 304 303 304 307 307 308 311 311 309 310 311 313 314 314 312 312 314 314 316 319 316 316 316 317 320 321 321 322 322 322 325 326 325 326 323 323 323 324 324
303 304 304 304 305 304 302 304 307 306 307 310 309 311 312 312 313 313 314 315 313 313 313 314 316 317 317 317 320 318 318 322 323 323 322 322 325 326 326 326 326 324 323 325 325
303 303 304 304 305 303 302 304 304 306 310 312 312 312 313 313 316 315 315 315 315 312 313 314 314 318 317 315 318 321 320 320 324 325 324 323 326 323 324 324 324 323 322 324 324
303 303 304 304 305 304 304 304 305 307 311 308 308 312 312 314 317 317 316 316 316 314 314 313 314 314 314 315 315 321 321 322 324 324 321 323 324 323 323 325 324 323 324 324 323
303 303 304 304 305 305 305 305 305 311 312 309 310 308 312 313 314 319 317 316 316 315 314 313 314 314 314 315 316 319 321 321 321 322 324 323 325 326 324 325 325 321 325 324 324
302 303 303 304 305 305 305 304 310 314 308 309 308 307 308 314 314 316 318 317 316 315 315 315 314 314 314 314 316 319 319 322 322 325 326 323 326 326 324 324 324 323 326 325 325
302 303 303 303 303 304 305 310 314 307 308 307 308 308 310 309 311 316 319 317 315 314 314 315 316 315 316 315 314 315 318 322 324 326 325 324 326 325 323 323 323 327 326 326 325
303 304 304 304 304 306 306 310 307 307 307 307 307 308 309 309 310 312 317 317 316 315 315 314 316 317 316 316 315 315 315 318 321 324 324 324 324 326 324 326 328 328 327 326 326
304 303 304 304 305 305 307 307 307 306 306 307 308 308 308 308 309 312 314 317 317 316 314 315 317 317 317 316 316 315 318 322 320 325 326 325 326 326 324 328 329 328 327 325 325
304 301 303 305 306 306 308 305 305 305 306 308 308 307 307 308 309 312 312 315 316 317 315 315 316 320 317 316 316 314 316 320 321 321 325 325 324 321 323 325 329 327 326 326 325
301 302 303 306 307 305 308 304 305 305 306 306 307 307 307 309 310 311 313 313 313 314 317 315 314 316 317 317 316 315 315 319 323 324 321 322 322 323 323 329 328 327 327 325 325
299 301 305 306 305 307 305 305 305 306 307 307 308 308 309 310 308 312 314 313 312 314 316 317 316 317 320 318 319 316 317 320 319 321 323 323 322 327 329 329 329 328 326 325 324
298 301 300 305 304 307 306 306 306 305 304 306 308 306 309 310 309 309 313 312 312 313 316 313 318 316 319 321 320 319 317 323 322 322 323 323 325 327 333 332 329 328 326 325 325
298 299 303 300 300 302 303 304 305 306 304 304 306 309 309 311 309 310 309 311 312 313 311 310 319 316 316 318 321 321 319 321 325 323 324 323 324 324 331 331 330 328 325 325 325
303 302 301 299 301 302 304 305 307 307 306 308 307 308 308 310 311 312 311 312 312 311 310 309 316 318 316 317 318 319 321 322 324 324 322 324 324 323 330 330 329 328 326 326 325
302 303 304 303 300 303 303 306 307 306 307 307 308 308 307 308 311 311 311 310 310 311 311 311 315 320 318 319 318 318 320 323 324 323 323 324 322 321 324 330 329 327 326 326 325
Wind_Speed
19 20 20 20 19 20 20 20 19 19 17 18 17 17 17 19 21 19 15 21 16 23 10 11 12 18 8 5 5 4 1 8 6 7 9 14 4 8 4 1 4 5 8 9 31
18 19 19 19 19 20 20 20 20 19 18 17 18 18 17 18 19 18 32 34 29 24 25 16 9 9 4 5 5 6 6 13 14 8 12 17 6 8 5 6 5 1 4 17 33
18 18 18 19 20 20 20 21 20 19 17 17 17 18 15 13 6 11 9 5 11 27 25 21 9 7 7 4 7 8 15 21 19 16 16 18 18 12 7 6 8 7 9 11 12
18 19 18 18 19 21 21 20 20 19 18 18 17 18 13 1 7 2 8 17 9 26 23 16 6 6 6 12 20 7 14 20 24 21 18 19 19 18 7 11 7 10 17 10 12
19 19 20 20 21 21 21 21 21 21 20 20 17 16 6 5 10 14 13 14 10 19 22 12 9 10 13 9 9 12 23 22 20 18 21 21 20 21 13 13 4 10 13 18 17
20 20 20 21 21 21 22 21 22 22 20 18 17 14 3 14 18 35 41 29 25 12 19 17 10 12 4 13 16 11 14 19 17 19 22 20 22 10 12 10 10 10 17 16 16
21 21 21 22 22 23 25 25 25 25 24 20 15 11 10 19 14 13 16 23 28 27 12 30 27 4 6 11 13 12 18 20 18 15 21 14 21 15 11 10 9 12 14 14 18
23 23 23 23 23 24 25 28 29 28 24 21 14 9 10 14 19 29 38 44 25 19 20 24 27 11 6 6 7 7 6 9 10 12 19 8 25 16 12 9 12 12 10 12 11
22 23 24 24 25 25 28 33 35 33 26 18 10 7 10 9 15 40 37 20 33 25 26 18 6 8 3 14 12 6 13 16 16 10 13 8 19 15 14 16 19 12 10 11 10
24 24 24 24 24 25 28 34 38 19 11 9 12 3 8 8 8 12 24 32 12 4 7 9 7 10 8 6 12 7 7 6 18 16 9 12 15 18 18 14 19 10 11 10 8
23 23 24 24 23 24 27 16 4 3 5 9 11 9 3 27 13 8 12 21 14 4 13 15 12 16 24 23 15 7 8 10 22 22 6 9 15 23 19 2 9 11 10 11 6
27 26 24 22 22 24 24 2 5 2 11 16 24 25 33 14 7 12 14 9 13 19 10 7 25 26 20 14 16 13 13 17 22 21 5 14 18 23 13 7 11 15 10 5 7
25 25 26 25 22 19 7 11 15 18 6 11 19 17 18 16 13 23 5 9 6 15 23 25 5 20 21 14 13 17 19 18 19 19 10 9 14 14 11 4 5 7 6 11 18
26 25 23 23 15 9 9 8 25 19 4 7 9 10 18 8 12 27 13 7 9 20 19 17 21 18 16 16 16 19 19 20 17 11 8 6 6 5 7 6 4 8 5 10 15
24 23 22 14 15 8 15 28 29 1 5 4 4 5 9 24 13 16 29 14 15 16 14 14 20 24 21 24 22 20 14 15 17 13 5 22 2 8 5 6 8 9 7 10 17
23 21 19 14 13 23 21 28 10 2 8 6 7 14 2 20 14 2 19 11 13 15 17 21 6 21 24 17 20 24 10 10 9 9 6 16 5 17 5 8 5 1 5 8 10
24 21 18 12 8 10 16 9 1 6 7 1 15 22 20 8 15 8 11 22 12 13 20 15 21 16 13 21 18 13 7 4 3 6 11 10 7 12 6 8 7 7 9 10 11
28 23 21 21 20 17 8 1 10 9 19 21 21 19 10 20 9 16 7 21 22 14 12 15 11 25 23 21 17 19 14 7 7 5 3 7 7 11 9 6 6 8 13 12 12
24 15 9 16 10 11 1 7 3 5 10 16 19 10 11 21 13 11 25 17 24 20 8 15 16 6 24 20 18 9 18 15 3 3 2 4 6 8 3 7 11 12 13 13 12
15 7 8 9 5 5 2 7 3 9 15 14 9 9 18 19 14 17 4 7 15 21 8 4 5 18 18 17 21 26 6 6 1 11 6 4 3 5 2 6 8 9 10 9 9
7 3 3 5 11 2 2 4 5 12 12 9 12 14 15 16 12 10 8 7 18 6 18 12 3 4 12 18 28 9 15 6 6 7 8 3 7 7 11 13 15 13 13 14 14
4 4 3 14 2 0 1 3 5 13 13 13 9 8 12 10 10 8 9 9 21 20 10 20 4 10 19 3 17 13 10 14 10 5 3 6 8 5 9 17 18 13 14 12 13
3 3 7 5 1 2 2 7 9 15 16 6 4 6 11 8 6 7 10 10 17 19 10 7 17 5 8 2 5 18 15 12 5 5 8 7 7 3 1 13 11 14 10 12 11
2 3 3 1 2 2 3 7 4 7 13 12 6 5 9 11 12 8 14 12 23 18 16 9 5 28 14 10 6 7 19 15 10 5 6 11 5 5 6 12 8 10 13 15 16
0 3 2 3 3 6 3 6 12 7 7 6 3 6 11 6 11 15 17 19 16 9 11 7 8 19 29 18 4 5 18 20 12 13 13 8 11 10 14 15 18 16 13 14 15
2 2 4 4 4 4 5 3 10 13 8 9 5 7 14 9 14 13 5 6 7 7 12 7 6 9 22 30 25 18 9 22 19 8 9 13 8 9 19 15 12 16 18 18 18
2 3 2 4 4 3 3 10 11 12 9 9 15 11 11 12 5 6 8 7 14 14 7 4 5 6 21 15 19 20 22 11 18 16 13 11 7 8 8 16 17 16 19 20 19
Wind_Direction
332 333 335 336 337 337 337 334 334 330 320 311 309 306 308 310 308 300 252 247 259 260 256 190 207 200 184 202 199 138 125 258 241 227 255 287 332 286 275 164 280 217 153 201 175
324 323 321 321 323 325 330 331 330 328 326 318 310 304 306 314 321 283 268 271 261 245 210 188 194 185 223 207 209 167 184 240 237 255 271 283 264 288 310 314 277 24 26 140 157
314 312 312 310 309 309 316 319 323 324 322 322 318 310 306 323 335 255 290 333 269 230 217 217 207 156 226 160 212 199 225 242 268 260 264 271 287 280 273 298 265 200 176 155 150
322 317 313 309 306 307 307 308 310 311 314 318 322 321 313 199 232 241 166 12 315 217 212 214 207 206 205 216 236 264 240 245 253 261 267 267 275 274 243 256 250 192 178 158 166
322 323 320 317 314 308 304 304 303 301 305 312 320 328 329 218 225 211 239 327 0 184 203 202 183 211 220 233 251 237 243 247 256 266 267 270 264 257 259 265 246 174 175 180 183
331 317 314 317 316 307 301 296 295 296 298 305 312 320 229 243 247 251 258 267 265 219 213 200 215 210 309 237 236 246 248 251 261 266 270 268 272 263 254 254 279 177 195 191 186
329 330 325 312 312 313 310 301 297 295 296 298 298 288 241 245 247 251 232 251 253 233 216 217 223 207 198 258 276 265 263 265 262 260 264 283 279 260 255 258 229 204 198 199 201
328 325 323 324 315 311 310 306 300 293 292 290 290 279 253 263 265 259 246 258 256 240 237 234 220 227 220 290 312 300 290 267 249 260 266 215 269 278 259 247 238 220 224 203 198
325 324 320 319 320 316 309 306 298 293 284 278 273 208 267 270 224 239 232 219 239 241 238 236 191 192 202 227 261 240 259 264 276 249 268 235 271 272 281 259 243 223 220 226 212
323 320 318 315 316 320 314 306 308 292 283 229 231 271 264 237 236 244 237 219 223 195 212 210 209 195 209 174 216 206 240 241 257 251 257 264 266 267 260 246 226 211 232 226 187
323 321 316 315 314 318 322 335 8 67 254 211 202 213 325 225 289 240 181 185 202 204 206 199 205 215 211 221 230 246 233 248 260 265 279 259 265 265 267 276 251 224 233 231 174
325 323 322 313 314 313 309 243 227 308 293 257 258 239 263 296 309 276 157 158 182 205 179 216 220 215 222 222 223 230 245 248 272 268 263 276 284 273 265 232 217 228 237 176 123
325 322 320 320 317 304 277 255 297 305 262 269 232 235 227 246 238 262 216 190 175 189 202 209 234 205 205 211 218 225 227 245 248 280 268 269 278 268 284 251 189 246 233 153 166
324 321 318 319 307 314 274 298 329 326 283 273 215 235 188 210 254 223 218 210 210 200 207 234 222 203 209 217 215 236 223 234 252 260 257 135 272 282 249 280 277 293 195 173 168
323 320 316 304 289 300 287 329 332 215 300 231 228 192 178 186 129 212 201 195 216 185 185 209 188 215 224 213 212 239 222 239 248 248 259 279 270 265 282 280 272 279 184 172 169
324 318 315 298 262 263 308 322 318 143 248 294 62 352 179 212 227 111 179 161 193 226 215 215 185 208 223 222 216 233 243 239 263 240 235 251 191 275 210 225 266 115 184 147 144
322 313 300 263 254 276 304 322 298 206 312 128 345 340 318 191 230 257 185 188 182 197 214 215 218 229 199 215 226 207 180 244 262 211 234 227 200 236 226 226 219 188 162 156 148
323 308 289 263 268 274 298 190 226 238 246 307 344 335 23 23 331 223 230 195 211 188 180 205 218 209 210 207 207 221 205 197 186 218 225 209 225 253 227 270 195 140 152 146 141
327 319 276 287 246 241 149 221 249 325 310 333 349 348 350 352 336 337 217 216 203 202 165 195 224 244 203 210 192 207 213 211 209 302 127 214 279 326 347 106 126 138 143 154 153
329 305 285 332 196 153 161 225 273 338 323 325 339 341 332 341 335 352 292 260 231 214 229 226 197 239 205 192 227 222 149 167 354 220 226 273 232 223 138 146 146 146 162 148 145
326 344 282 4 150 109 238 234 306 274 309 325 321 313 316 323 323 324 280 345 25 313 217 244 91 315 193 203 206 185 208 208 174 169 196 201 258 214 198 180 166 178 168 162 162
346 325 15 147 122 289 219 233 270 273 295 299 288 284 290 325 299 298 264 299 359 350 307 210 146 238 240 332 207 211 189 196 218 224 182 160 258 289 182 165 167 171 173 168 159
318 265 22 124 77 247 302 294 285 275 272 257 280 271 288 277 272 320 294 326 335 344 355 320 215 267 321 163 243 199 201 191 141 121 185 156 252 148 57 152 167 156 162 158 157
360 327 327 72 158 262 282 270 263 309 304 257 235 292 287 262 245 263 284 308 341 320 326 324 246 209 218 214 165 198 204 191 166 159 167 196 178 148 184 158 164 168 162 166 164
51 272 315 297 321 310 281 278 287 288 253 276 234 215 290 296 251 253 263 302 322 292 356 2 242 209 222 243 251 201 212 198 180 185 180 195 182 195 183 181 182 172 158 160 166
306 333 342 276 279 300 293 313 314 315 280 305 284 326 321 260 281 271 273 316 291 300 351 340 292 227 219 227 238 248 253 206 202 180 141 174 207 184 188 191 154 170 166 175 177
292 299 357 298 312 326 254 347 300 309 291 311 309 283 274 281 233 245 219 196 251 270 296 281 329 334 223 214 231 239 236 220 193 185 149 177 197 154 149 178 180 172 178 182 180